Home > Weather > Örebro > Past weeks

Flag for Sweden Past Weather in Örebro, Sweden — Yesterday and Last 2 Weeks

Now
61 °F

Overcast.


Feels Like: 61 °F
Forecast: 49 / 64 °F
Wind: 12 mph from East

Location: Vasteras / Hasslo

Current Time: May 28, 2016 at 8:11:16 PM

Latest Report: May 28, 2016 at 7:20 PM


Visibility: N/A

Pressure: 30.21 "Hg

Humidity: 68%

Dew Point: 50 °F

Location of ÖrebroLocation

Past Weather in Örebro — Graph

°F

Örebro Temperature Yesterday

Maximum temperature yesterday: 55 °F (at 12:50 PM)
Minimum temperature yesterday: 48 °F (at 12:20 AM)
Average temperature yesterday: 51 °F

High & Low Weather Summary for the Past Weeks

 TemperatureHumidityPressure
High77 °F (May 24, 1:20 PM)100% (May 16, 11:50 PM)30.24 "Hg (May 16, 11:50 PM)
Low41 °F (May 13, 10:50 PM)35% (May 15, 6:20 PM)29.56 "Hg (May 14, 3:50 AM)
Average52 °F76%29.86 "Hg
* Reported May 13 7:20 PM — May 28 7:20 PM, Örebro, Weather by CustomWeather, © 2016

Note: Actual official high and low records may vary slightly from our data, if they occured in-between our weather recording intervals... More about our weather records

Advertising

Örebro Weather History for the Previous 24 Hours

Scroll right to see more
 ConditionsComfort  
Time TempWeatherWind HumidityBarometerVisibility
7:20 PM
Sat, May 28
61 °FOvercast.12 mph68%30.21 "HgN/A
6:50 PM61 °FOvercast.8 mph72%30.21 "HgN/A
6:20 PM63 °FPartly sunny.10 mph64%30.21 "HgN/A
5:50 PM63 °FBroken clouds.8 mph68%30.21 "HgN/A
5:20 PM63 °FPartly sunny.8 mph73%30.21 "HgN/A
4:50 PM61 °FBroken clouds.7 mph83%30.21 "HgN/A
4:20 PM59 °FBroken clouds.7 mph82%30.21 "HgN/A
3:50 PM59 °FPartly sunny.8 mph82%30.21 "HgN/A
3:20 PM59 °FBroken clouds.8 mph77%30.21 "HgN/A
1:20 PM59 °FPartly sunny.6 mph68%30.24 "HgN/A
12:50 PM59 °FPartly sunny.6 mph68%30.21 "HgN/A
12:20 PM59 °FBroken clouds.8 mph68%30.21 "HgN/A
11:50 AM59 °FPartly sunny.6 mph72%30.24 "HgN/A
11:20 AM57 °FPartly sunny.6 mph77%30.21 "HgN/A
10:50 AM57 °FScattered clouds.5 mph72%30.21 "HgN/A
10:20 AM55 °FPartly sunny.3 mph77%30.21 "HgN/A
9:50 AM54 °FPartly sunny.6 mph82%30.21 "HgN/A
9:20 AM52 °FPartly sunny.6 mph88%30.21 "HgN/A
8:50 AM52 °FPartly sunny.1 mph88%30.21 "HgN/A
8:20 AM52 °FLow clouds.3 mph88%30.21 "HgN/A
7:50 AM50 °FMostly cloudy.3 mph88%30.21 "HgN/A
7:20 AM50 °FLow clouds.3 mph88%30.21 "HgN/A
6:50 AM48 °FLow clouds.6 mph94%30.21 "HgN/A
6:20 AM48 °FLow clouds.8 mph94%30.18 "HgN/A
5:50 AM50 °FBroken clouds.7 mph88%30.18 "HgN/A
5:20 AM50 °FMostly cloudy.5 mph88%30.18 "HgN/A
4:50 AM48 °FOvercast.5 mph94%30.18 "HgN/A
4:20 AM48 °FPartly cloudy.3 mph94%30.18 "HgN/A
3:50 AM48 °FMostly cloudy.6 mph94%30.18 "HgN/A
3:20 AM48 °FLow clouds.7 mph94%30.18 "HgN/A
2:50 AM48 °FOvercast.8 mph94%30.18 "HgN/A
2:20 AM50 °FOvercast.8 mph88%30.18 "HgN/A
1:50 AM50 °FLow clouds.8 mph94%30.15 "HgN/A
1:20 AM50 °FLow clouds.10 mph94%30.15 "HgN/A
12:50 AM50 °FLight rain. Passing clouds.9 mph94%30.15 "Hg3 mi
12:20 AM50 °FDrizzle. Low clouds.6 mph94%30.15 "HgN/A
11:50 PM
Fri, May 27
50 °FMostly cloudy.5 mph94%30.15 "HgN/A
11:20 PM50 °FDrizzle. Low clouds.6 mph94%30.15 "HgN/A
10:50 PM50 °FLight rain. Partly cloudy.8 mph94%30.12 "HgN/A
10:20 PM50 °FLow clouds.9 mph94%30.12 "HgN/A
9:50 PM50 °FDrizzle. Partly sunny.10 mph94%30.12 "Hg6 mi
9:20 PM50 °FLight rain. Partly sunny.10 mph88%30.12 "Hg3 mi
8:50 PM50 °FDrizzle. Partly sunny.9 mph94%30.12 "HgN/A
8:20 PM50 °FLight rain. Partly sunny.10 mph94%30.12 "HgN/A
Weather by CustomWeather, © 2016

See weather overviewHow to use our weather pages